Regional Weather Roundup
Issued by NWS

Home | Current Version | Previous Version | Graphics & Text | Print | Product List | Glossary On
Versions: 1 2 3 4 5 6 7 8 9 10 11 12 13 14 15 16 17 18 19 20 21 22 23 24 25 26 27 28 29 30 31 32 33 34 35 36 37 38 39 40 41 42 43 44 45 46 47 48 49 50
000
ASUS43 KLSX 130557
RWRMO

WEATHER SUMMARY FOR MISSOURI
NATIONAL WEATHER SERVICE SPRINGFIELD MO
1200 AM CST WED DEC 13 2017

NOTE: "FAIR" INDICATES FEW OR NO CLOUDS BELOW 12,000 FEET WITH NO
       SIGNIFICANT WEATHER AND/OR OBSTRUCTIONS TO VISIBILITY.
       CURRENT SKY AND/OR WEATHER CONDITIONS ARE NOT AVAILABLE FOR
       CHILLICOTHE AND FARMINGTON.

MOZ001>031-035>038-043-044-053-054-130700-
...NORTHERN AND WESTERN MISSOURI...

CITY           SKY/WX    TMP DP  RH WIND       PRES   REMARKS
KANSAS CTY INT CLEAR     36  27  69 S13       29.88F WCI  27
6HR MIN TEMP:  27; 6HR MAX TEMP:  37;

LEE`S SUMMIT   CLEAR     32  25  75 SW12      29.92F WCI  23
6HR MIN TEMP:  32; 6HR MAX TEMP:  36;

ST JOSEPH      CLEAR     31  27  85 S7        29.88F WCI  24
6HR MIN TEMP:  27; 6HR MAX TEMP:  33;

CHILLICOTHE      N/A     30  20  66 S6        29.93F WCI  24
6HR MIN TEMP:  25; 6HR MAX TEMP:  30;


$$
MOZ066>068-077>081-088>096-101>105-130700-
...SOUTHWEST MISSOURI...

CITY           SKY/WX    TMP DP  RH WIND       PRES   REMARKS
SPRINGFIELD    CLOUDY    28  13  53 S9        30.04F WCI  19
6HR MIN TEMP:  26; 6HR MAX TEMP:  33;

JOPLIN         CLEAR     31  19  61 S8        30.05F WCI  23
6HR MIN TEMP:  29; 6HR MAX TEMP:  36;


$$
MOZ032>034-039>042-045>050-055>058-069>072-130700-
...CENTRAL MISSOURI...

CITY           SKY/WX    TMP DP  RH WIND       PRES   REMARKS
COLUMBIA       NOT AVBL
JEFFERSON CITY CLOUDY    28  11  48 E3        30.03F
6HR MIN TEMP:  25; 6HR MAX TEMP:  34;

ROLLA          CLOUDY    25  10  53 SW10      30.02F WCI  15
6HR MIN TEMP:  21; 6HR MAX TEMP:  29;

SEDALIA        CLEAR     34  21  59 SW13      29.98F WCI  25
6HR MIN TEMP:  30; 6HR MAX TEMP:  34;

WARRENSBURG    CLEAR     32  21  64 S10       29.96F WCI  24

$$
MOZ051-052-059>065-130700-
...EAST CENTRAL MISSOURI...

CITY           SKY/WX    TMP DP  RH WIND       PRES   REMARKS
ST LOUIS INTL  CLEAR     28   7  41 SW6       30.02F WCI  22
6HR MIN TEMP:  27; 6HR MAX TEMP:  32;


$$
MOZ072>076-082>087-097>100-106>115-130700-
...SOUTH CENTRAL AND SOUTHEAST MISSOURI...

CITY           SKY/WX    TMP DP  RH WIND       PRES   REMARKS
CAPE GIRARDEAU CLOUDY    20  14  77 CALM      30.09F
6HR MIN TEMP:  20; 6HR MAX TEMP:  34;

POPLAR BLUFF   CLOUDY    25  18  74 SW3       30.10F
6HR MIN TEMP:  24; 6HR MAX TEMP:  37;

WEST PLAINS    CLOUDY    27  10  49 W5        30.07F WCI  22
6HR MIN TEMP:  25; 6HR MAX TEMP:  32;


$$


USA.gov is the U.S. government's official web portal to all federal, state and local government web resources and services.